CW5715 Weather Reports


time (UTC)temp
C
wind
direction
speed
KPH
gust
KPH
rain 1hr
cm
rain 24hr
cm
rain mn
cm
humidity
%
barometer
mb
20260502222004 21 203 1.6 3.2 0.00 0.81 0.81 96 1010.0
20260502215004 21 241 4.8 12.9 0.05 0.81 0.81 93 1009.7
20260502213003 21 196 3.2 8.0 0.10 0.81 0.81 95 1008.7
20260502211505 20 211 1.6 3.2 0.10 0.81 0.81 98 1009.2
20260502210004 20 209 1.6 4.8 0.08 0.79 0.79 98 1009.7
20260502205005 20 208 3.2 4.8 0.05 0.76 0.76 98 1009.7
20260502203504 20 225 3.2 4.8 0.15 0.74 0.74 98 1010.0
20260502203003 20 182 4.8 11.3 0.18 0.71 0.71 98 1010.3
20260502195005 20 198 1.6 4.8 0.71 0.71 0.71 97 1009.6
20260502194505 20 218 1.6 4.8 0.71 0.71 0.71 96 1009.7
20260502194003 20 266 3.2 8.0 0.71 0.71 0.71 96 1010.1
20260502193504 20 212 6.4 11.3 0.58 0.58 0.58 96 1011.0
20260502193005 20 192 11.3 16.1 0.53 0.53 0.53 95 1011.4
20260502192003 20 235 14.5 24.1 0.25 0.25 0.25 93 1011.5
20260502191004 22 230 9.7 19.3 0.03 0.03 0.03 83 1011.4
20260502190503 23 276 9.7 22.5 0.03 0.03 0.03 77 1011.3
20260502184503 27 229 9.7 12.9 0.00 0.00 0.00 78 1010.3
20260502184004 27 216 8.0 14.5 0.00 0.00 0.00 78 1010.2
20260502183505 27 183 8.0 14.5 0.00 0.00 0.00 77 1010.1
20260502183003 27 206 9.7 14.5 0.00 0.00 0.00 76 1010.3
20260502182504 27 235 8.0 16.1 0.00 0.00 0.00 75 1010.4
20260502182004 27 221 9.7 20.9 0.00 0.00 0.00 76 1010.4
20260502181505 27 231 11.3 24.1 0.00 0.00 0.00 76 1010.3
20260502180504 28 229 9.7 27.4 0.00 0.00 0.00 73 1010.4
20260502170504 28 231 11.3 20.9 0.00 0.00 0.00 72 1010.4